Weather in Gadabay

Azerbaijan     40°34′28″N   45°48′27″E
temp.,
°C
wind,
m/s
gust,
m/s
humid.,
%
clouds,
%
prec.,
mm/h
press.,
hPa
HPBL,
m
26 february, fri
fri2601:00−10ssw22710 0.0 103324
04:00−9ssw33761 0.0 103226
07:00−9ssw33750 0.0 103126
10:00−3w11660 0.0 1029147
13:00−2n21833 0.0 1027313
16:00−1n218817 0.0 1025319
19:00−6wsw118689 0.0 102621
22:00−6ssw117392 0.0 102721
27 february, sat
sat2701:00−6ssw226812 0.0 102621
04:00−6ssw226314 0.0 102621
07:00−6ssw226334 0.0 102521
10:00−1wsw116742 0.0 1024132
13:000n11880 0.0 1021241
16:00+1nnw11905 0.0 1019216
19:00−4sw22766 0.0 101921
22:00−4ssw33713 0.0 102022
28 february, sun
sun2801:00−4ssw33700 0.0 102024
04:00−5ssw33640 0.0 101925
07:00−5ssw33630 0.0 101928
10:000sw22690 0.0 1018123
13:00+2w12810 0.0 1015270
16:00+2wsw12790 0.0 1013309
19:00−2ssw33670 0.0 101524
22:00−4ssw33660 0.0 101623
1 march, mon
mon101:00−4ssw33610 0.0 101728
04:00−4ssw33600 0.0 101724
07:00−5ssw336512 0.0 101822
10:00−2ne227054 0.0 1019283
13:00−1ne3288100 0.0 1019470
16:00−2ne3397100 0.8 1018266
19:00−4nne2398100 1.4 1020149
22:00−4n2298100 3.9 1023137
2 march, tue
tue201:00−5nne1198100 1.2 102455
04:00−5ne1298100 2.3 102489
07:00−6ene1298100 0.8 102564
10:00−5ne2295100 1.4 1025249
13:00−3nne3398100 0.8 1024330
16:00−4n3396100 2.5 1023344
19:00−6n2297100 0.9 1024100
22:00−6nnw1196100 2.1 102581